When you browse on this site, cookies collect data to enhance your experience and personalize the content and advertising you see.
Visit our Privacy Policy to learn more. By continuing to use the site, you agree to this use of cookies and data.

Meteo pe oră la Dziepolc

Astăzi, 26 Septembrie, Sâmbătă

Timp Temperatura Precipitaţii Vânt Presiune Umiditate
00:00 +16°C° 0.2 mm 1 m/s 723 mmHg 93%
01:00 +16°C° 0 mm 1 m/s 723 mmHg 93%
02:00 +16°C° 0.9 mm 2 m/s 722 mmHg 93%
03:00 +16°C° 0.9 mm 2 m/s 722 mmHg 92%
04:00 +16°C° 0.9 mm 3 m/s 721 mmHg 92%
05:00 +17°C° 0.2 mm 4 m/s 721 mmHg 87%
06:00 +17°C° 0.2 mm 4 m/s 720 mmHg 83%
07:00 +17°C° 0 mm 5 m/s 720 mmHg 77%
08:00 +19°C° 0 mm 6 m/s 720 mmHg 72%
09:00 +20°C° 0 mm 7 m/s 720 mmHg 66%
10:00 +21°C° 0 mm 8 m/s 720 mmHg 61%
11:00 +20°C° 0.4 mm 8 m/s 720 mmHg 65%
12:00 +18°C° 0.4 mm 7 m/s 721 mmHg 69%
13:00 +19°C° 0.4 mm 6 m/s 721 mmHg 74%
14:00 +17°C° 0.1 mm 6 m/s 721 mmHg 71%
15:00 +16°C° 0.1 mm 5 m/s 722 mmHg 69%
16:00 +15°C° 0.1 mm 5 m/s 723 mmHg 67%
17:00 +14°C° 0 mm 4 m/s 723 mmHg 68%
18:00 +13°C° 0 mm 4 m/s 724 mmHg 69%
19:00 +12°C° 0 mm 3 m/s 724 mmHg 71%
20:00 +12°C° 0 mm 3 m/s 725 mmHg 71%
21:00 +12°C° 0 mm 3 m/s 725 mmHg 72%
22:00 +11°C° 0 mm 3 m/s 725 mmHg 73%
23:00 +11°C° 0.6 mm 4 m/s 726 mmHg 75%

Mâine, 27 Septembrie, Duminică

Timp Temperatura Precipitaţii Vânt Presiune Umiditate
00:00 +10°C° 0.6 mm 4 m/s 726 mmHg 77%
01:00 +8°C° 0.6 mm 4 m/s 726 mmHg 78%
02:00 +8°C° 1.2 mm 5 m/s 726 mmHg 82%
03:00 +8°C° 1.2 mm 5 m/s 725 mmHg 85%
04:00 +8°C° 1.2 mm 5 m/s 725 mmHg 88%
05:00 +8°C° 1.2 mm 5 m/s 725 mmHg 89%
06:00 +7°C° 1.2 mm 5 m/s 725 mmHg 89%
07:00 +7°C° 1.2 mm 5 m/s 726 mmHg 89%
08:00 +7°C° 2.2 mm 5 m/s 726 mmHg 88%
09:00 +8°C° 2.2 mm 6 m/s 726 mmHg 88%
10:00 +8°C° 2.2 mm 6 m/s 726 mmHg 87%
11:00 +8°C° 0.4 mm 6 m/s 727 mmHg 84%
12:00 +9°C° 0.4 mm 6 m/s 728 mmHg 81%
13:00 +9°C° 0.4 mm 6 m/s 728 mmHg 79%
14:00 +9°C° 0.4 mm 6 m/s 729 mmHg 78%
15:00 +10°C° 0.4 mm 5 m/s 729 mmHg 78%
16:00 +10°C° 0.4 mm 5 m/s 730 mmHg 78%
17:00 +11°C° 0.2 mm 4 m/s 730 mmHg 79%
18:00 +10°C° 0.2 mm 3 m/s 731 mmHg 80%
19:00 +10°C° 0.2 mm 3 m/s 731 mmHg 82%
20:00 +10°C° 0 mm 3 m/s 732 mmHg 81%
21:00 +10°C° 0 mm 3 m/s 733 mmHg 80%
22:00 +10°C° 0 mm 4 m/s 734 mmHg 79%
23:00 +8°C° 0 mm 4 m/s 734 mmHg 80%

Poimâine, 28 Septembrie, Luni

Timp Temperatura Precipitaţii Vânt Presiune Umiditate
00:00 +9°C° 0 mm 3 m/s 734 mmHg 80%
01:00 +8°C° 0 mm 3 m/s 734 mmHg 81%
02:00 +8°C° 0 mm 3 m/s 734 mmHg 81%
03:00 +8°C° 0 mm 3 m/s 734 mmHg 81%
04:00 +7°C° 0 mm 3 m/s 734 mmHg 81%
05:00 +8°C° 0 mm 3 m/s 735 mmHg 78%
06:00 +8°C° 0 mm 4 m/s 735 mmHg 76%
07:00 +8°C° 0 mm 4 m/s 735 mmHg 73%
08:00 +11°C° 0 mm 4 m/s 735 mmHg 68%
09:00 +12°C° 0 mm 5 m/s 735 mmHg 62%
10:00 +14°C° 0 mm 5 m/s 735 mmHg 56%
11:00 +13°C° 0.1 mm 4 m/s 735 mmHg 61%
12:00 +13°C° 0.1 mm 3 m/s 735 mmHg 65%
13:00 +13°C° 0.1 mm 2 m/s 735 mmHg 69%
14:00 +13°C° 0.1 mm 2 m/s 734 mmHg 71%
15:00 +13°C° 0.1 mm 2 m/s 734 mmHg 72%
16:00 +14°C° 0.1 mm 2 m/s 734 mmHg 73%
17:00 +13°C° 0 mm 2 m/s 734 mmHg 74%
18:00 +13°C° 0 mm 2 m/s 734 mmHg 76%
19:00 +13°C° 0 mm 2 m/s 734 mmHg 77%
20:00 +12°C° 0 mm 2 m/s 735 mmHg 80%
21:00 +12°C° 0 mm 1 m/s 735 mmHg 83%
22:00 +11°C° 0 mm 1 m/s 735 mmHg 85%
23:00 +11°C° 0 mm 1 m/s 735 mmHg 85%

29 Septembrie, Marţi

Timp Temperatura Precipitaţii Vânt Presiune Umiditate
00:00 +11°C° 0 mm 1 m/s 735 mmHg 85%
01:00 +11°C° 0 mm 1 m/s 735 mmHg 85%
02:00 +11°C° 0 mm 1 m/s 735 mmHg 85%
03:00 +11°C° 0 mm 1 m/s 735 mmHg 86%
04:00 +10°C° 0 mm 2 m/s 735 mmHg 87%
05:00 +10°C° 0 mm 2 m/s 735 mmHg 87%
06:00 +10°C° 0 mm 2 m/s 735 mmHg 87%
07:00 +10°C° 0 mm 3 m/s 735 mmHg 87%
08:00 +11°C° 0 mm 3 m/s 735 mmHg 82%
09:00 +12°C° 0 mm 3 m/s 735 mmHg 78%
10:00 +14°C° 0 mm 2 m/s 736 mmHg 73%
11:00 +15°C° 0 mm 2 m/s 736 mmHg 71%
12:00 +16°C° 0 mm 2 m/s 736 mmHg 68%
13:00 +16°C° 0 mm 2 m/s 736 mmHg 65%
14:00 +16°C° 0 mm 2 m/s 736 mmHg 66%
15:00 +16°C° 0 mm 2 m/s 736 mmHg 66%
16:00 +16°C° 0 mm 2 m/s 736 mmHg 67%
17:00 +15°C° 0 mm 2 m/s 736 mmHg 71%
18:00 +14°C° 0 mm 2 m/s 736 mmHg 75%
19:00 +13°C° 0 mm 1 m/s 736 mmHg 79%
20:00 +13°C° 0 mm 2 m/s 736 mmHg 80%
21:00 +13°C° 0 mm 2 m/s 736 mmHg 80%
22:00 +13°C° 0 mm 2 m/s 736 mmHg 81%
23:00 +12°C° 0 mm 2 m/s 736 mmHg 82%

30 Septembrie, Miercuri

Timp Temperatura Precipitaţii Vânt Presiune Umiditate
00:00 +12°C° 0 mm 2 m/s 736 mmHg 84%
01:00 +11°C° 0 mm 3 m/s 736 mmHg 86%
02:00 +11°C° 0 mm 3 m/s 736 mmHg 86%
03:00 +11°C° 0 mm 3 m/s 736 mmHg 86%
04:00 +11°C° 0 mm 3 m/s 736 mmHg 85%
05:00 +11°C° 0 mm 3 m/s 736 mmHg 86%
06:00 +11°C° 0 mm 3 m/s 736 mmHg 87%
07:00 +11°C° 0 mm 3 m/s 735 mmHg 88%
08:00 +12°C° 0 mm 3 m/s 735 mmHg 87%
09:00 +13°C° 0 mm 3 m/s 735 mmHg 86%
10:00 +13°C° 0 mm 3 m/s 735 mmHg 85%
11:00 +14°C° 0.1 mm 3 m/s 735 mmHg 83%
12:00 +14°C° 0.1 mm 3 m/s 735 mmHg 81%
13:00 +16°C° 0.1 mm 3 m/s 734 mmHg 78%
14:00 +16°C° 0.1 mm 3 m/s 734 mmHg 79%
15:00 +16°C° 0.1 mm 3 m/s 734 mmHg 81%
16:00 +14°C° 0.1 mm 3 m/s 733 mmHg 82%
17:00 +14°C° 0.1 mm 3 m/s 733 mmHg 84%
18:00 +13°C° 0.1 mm 3 m/s 733 mmHg 86%
19:00 +13°C° 0.1 mm 3 m/s 733 mmHg 89%
20:00 +13°C° 0 mm 3 m/s 733 mmHg 89%
21:00 +12°C° 0 mm 3 m/s 733 mmHg 90%
22:00 +12°C° 0 mm 3 m/s 733 mmHg 91%
23:00 +12°C° 0.3 mm 4 m/s 732 mmHg 92%

1 Octombrie, Joi

Timp Temperatura Precipitaţii Vânt Presiune Umiditate
00:00 +12°C° 0.3 mm 4 m/s 732 mmHg 92%
01:00 +12°C° 0.3 mm 4 m/s 731 mmHg 93%
02:00 +12°C° 0.5 mm 3 m/s 731 mmHg 94%
03:00 +12°C° 0.5 mm 3 m/s 731 mmHg 94%
04:00 +12°C° 0.5 mm 3 m/s 731 mmHg 95%
05:00 +12°C° 1 mm 3 m/s 730 mmHg 95%
06:00 +13°C° 1 mm 2 m/s 730 mmHg 96%
07:00 +13°C° 1 mm 2 m/s 730 mmHg 96%
08:00 +13°C° 0.8 mm 2 m/s 730 mmHg 96%
09:00 +13°C° 0.8 mm 2 m/s 729 mmHg 96%
10:00 +13°C° 0.8 mm 2 m/s 729 mmHg 95%
11:00 +13°C° 0.9 mm 2 m/s 729 mmHg 95%
12:00 +13°C° 0.9 mm 2 m/s 729 mmHg 95%
13:00 +13°C° 0.9 mm 2 m/s 729 mmHg 95%
14:00 +13°C° 0.7 mm 2 m/s 729 mmHg 95%
15:00 +13°C° 0.7 mm 1 m/s 728 mmHg 95%
16:00 +13°C° 0.7 mm 1 m/s 728 mmHg 94%
17:00 +13°C° 0.1 mm 2 m/s 728 mmHg 94%
18:00 +13°C° 0.1 mm 2 m/s 728 mmHg 93%
19:00 +13°C° 0.1 mm 2 m/s 729 mmHg 93%
20:00 +13°C° 0.1 mm 2 m/s 729 mmHg 91%
21:00 +12°C° 0.1 mm 3 m/s 729 mmHg 90%
22:00 +12°C° 0.1 mm 3 m/s 729 mmHg 88%
23:00 +12°C° 0 mm 3 m/s 729 mmHg 89%
Arată mai mult